User: anonymous   Login
Location: Milton
(43.5183°N, 79.8775°W)
Time: 21:57:30
(UTC+00:00)
Language:

UNISAT 6 - Orbit

View from above orbital plane
View from above orbital plane
View from above satellite
View from above satellite

Ground track
Ground track

The orbit data is extracted from the following two-line orbital elements,

1 40012U 14033C   24051.44331639  .00003445  00000-0  46595-3 0  9991
2 40012  97.6882 218.8625 0053398 330.1483  29.6686 14.78653431520434
Epoch (UTC): 20 February 2024 10:38:22
Eccentricity: 0.0053398
inclination: 97.6882°
perigee height: 596 km
apogee height: 671 km
right ascension of ascending node: 218.8625°
argument of perigee: 330.1483°
revolutions per day: 14.78653431
mean anomaly at epoch: 29.6686°
orbit number at epoch: 52043

The dashed part of the orbit path shows where the satellite is in the earth's shadow,  

DLR